EJA409 ZUUU-ZLDH

Flight info

Callsign EJA409
Flight time 2h 11m
Altitude 36100
Route BOKR9W BOKIR W179 OMBON W195 IDOPA W197 ANDIM B215 TODOD
Aircraft CL60/M-SADE3FGHIJ1J3J4J7P2RWXY/LB1

Departure

Time 2026-04-28 21:04
Airport Chengdu Shuangliu International Airport (ZUUU)

Arrival

Time 2026-04-28 23:15
Airport Dunhuang Mogao International Airport (ZLDH)
Time Latitude Longitude Altitude Speed Heading
2026-04-28 20:57 30.55412 103.94486 1689 ft 0 kts 334°
2026-04-28 21:00 30.55416 103.94482 1689 ft 3 kts 302°
2026-04-28 21:00 30.55372 103.94485 1689 ft 10 kts 166°
2026-04-28 21:01 30.55346 103.94419 1689 ft 13 kts 323°
2026-04-28 21:01 30.55439 103.94373 1689 ft 16 kts 336°
2026-04-28 21:01 30.55551 103.94315 1689 ft 19 kts 337°
2026-04-28 21:01 30.55682 103.94252 1689 ft 21 kts 336°
2026-04-28 21:02 30.55830 103.94177 1689 ft 24 kts 338°
2026-04-28 21:02 30.55999 103.94159 1689 ft 26 kts 20°
2026-04-28 21:02 30.56174 103.94241 1689 ft 28 kts 22°
2026-04-28 21:02 30.56271 103.94241 1689 ft 15 kts 300°
2026-04-28 21:03 30.56316 103.94115 1689 ft 18 kts 292°
2026-04-28 21:03 30.56369 103.94013 1689 ft 9 kts 354°
2026-04-28 21:03 30.56561 103.94099 1689 ft 79 kts 21°
2026-04-28 21:03 30.57405 103.94490 1778 ft 167 kts 21°
2026-04-28 21:04 30.58562 103.95025 2551 ft 190 kts 20°
2026-04-28 21:04 30.59779 103.95583 3239 ft 205 kts 19°
2026-04-28 21:04 30.61249 103.96262 4000 ft 243 kts 20°
2026-04-28 21:04 30.62872 103.97017 5099 ft 265 kts 20°
2026-04-28 21:05 30.64582 103.97816 6448 ft 275 kts 19°
2026-04-28 21:05 30.66321 103.98628 7940 ft 277 kts 21°
2026-04-28 21:05 30.68057 103.99446 9486 ft 275 kts 25°
2026-04-28 21:05 30.69574 104.00681 10876 ft 276 kts 51°
2026-04-28 21:06 30.70562 104.02615 12001 ft 288 kts 62°
2026-04-28 21:06 30.71472 104.04699 13118 ft 298 kts 62°
2026-04-28 21:06 30.72420 104.06849 14192 ft 307 kts 62°
2026-04-28 21:06 30.73407 104.09069 15228 ft 315 kts 61°
2026-04-28 21:07 30.74419 104.11324 16220 ft 322 kts 61°
2026-04-28 21:07 30.75469 104.13629 17145 ft 329 kts 60°
2026-04-28 21:07 30.76737 104.15852 18080 ft 332 kts 43°
2026-04-28 21:07 30.78655 104.17273 18934 ft 332 kts 17°
2026-04-28 21:08 30.80873 104.18086 19766 ft 337 kts 14°
2026-04-28 21:08 30.83130 104.18878 20592 ft 342 kts 13°
2026-04-28 21:08 30.85509 104.19715 20885 ft 364 kts 13°
2026-04-28 21:08 30.87962 104.20585 21295 ft 379 kts 13°
2026-04-28 21:09 30.90506 104.21504 21923 ft 386 kts 13°
2026-04-28 21:09 30.93103 104.22479 22623 ft 391 kts 14°
2026-04-28 21:09 30.95655 104.23486 23343 ft 394 kts 15°
2026-04-28 21:09 30.98233 104.24658 24050 ft 400 kts 18°
2026-04-28 21:10 31.00805 104.25932 24810 ft 401 kts 18°
2026-04-28 21:10 31.03360 104.27195 25431 ft 405 kts 18°
2026-04-28 21:10 31.05962 104.28481 26063 ft 408 kts 18°
2026-04-28 21:10 31.08588 104.29781 26682 ft 410 kts 17°
2026-04-28 21:11 31.11239 104.31094 27248 ft 414 kts 18°
2026-04-28 21:11 31.13714 104.32321 27772 ft 416 kts 17°
2026-04-28 21:11 31.16348 104.33626 28189 ft 422 kts 17°
2026-04-28 21:11 31.19109 104.34996 28709 ft 424 kts 17°
2026-04-28 21:12 31.21842 104.36353 29206 ft 426 kts 17°
2026-04-28 21:12 31.24328 104.37396 29743 ft 418 kts
2026-04-28 21:12 31.27178 104.37753 30199 ft 409 kts 353°
2026-04-28 21:12 31.30018 104.37600 30558 ft 412 kts 352°
2026-04-28 21:13 31.32872 104.37435 30971 ft 414 kts 351°
2026-04-28 21:13 31.35760 104.37274 31436 ft 415 kts 351°
2026-04-28 21:13 31.38646 104.37112 31826 ft 417 kts 351°
2026-04-28 21:13 31.41586 104.36948 32190 ft 419 kts 351°
2026-04-28 21:14 31.44487 104.36785 32515 ft 421 kts 351°
2026-04-28 21:14 31.47421 104.36620 32850 ft 422 kts 351°
2026-04-28 21:14 31.50344 104.36458 33230 ft 422 kts 351°
2026-04-28 21:14 31.53286 104.36295 33648 ft 420 kts 351°
2026-04-28 21:15 31.56174 104.36135 34057 ft 418 kts 350°
2026-04-28 21:15 31.59078 104.35973 34383 ft 418 kts 350°
2026-04-28 21:15 31.62015 104.35808 34754 ft 422 kts 350°
2026-04-28 21:15 31.64920 104.35644 34946 ft 423 kts 350°
2026-04-28 21:16 31.67878 104.35480 35255 ft 424 kts 350°
2026-04-28 21:16 31.70811 104.35315 35530 ft 425 kts 350°
2026-04-28 21:16 31.73787 104.35148 36158 ft 425 kts 350°
2026-04-28 21:16 31.76737 104.34984 36379 ft 429 kts 350°
2026-04-28 21:17 31.82794 104.34666 36332 ft 439 kts 351°
2026-04-28 21:17 31.88888 104.34357 36345 ft 440 kts 351°
2026-04-28 21:18 31.95027 104.34045 36363 ft 438 kts 350°
2026-04-28 21:18 32.01083 104.33736 36373 ft 437 kts 351°
2026-04-28 21:19 32.07178 104.33425 36367 ft 437 kts 351°
2026-04-28 21:19 32.13250 104.33114 36387 ft 437 kts 351°
2026-04-28 21:20 32.16163 104.32964 36224 ft 435 kts 350°
2026-04-28 21:20 32.19112 104.32811 36367 ft 437 kts 351°
2026-04-28 21:20 32.25047 104.32503 36402 ft 442 kts 351°
2026-04-28 21:21 32.31183 104.32188 36414 ft 442 kts 350°
2026-04-28 21:21 32.37363 104.31870 36416 ft 441 kts 351°
2026-04-28 21:22 32.43471 104.31562 36407 ft 442 kts 351°
2026-04-28 21:22 32.49646 104.31267 36439 ft 441 kts 350°
2026-04-28 21:23 32.55777 104.30972 36436 ft 441 kts 351°
2026-04-28 21:23 32.61924 104.30677 36458 ft 442 kts 351°
2026-04-28 21:24 32.68056 104.30383 36481 ft 443 kts 351°
2026-04-28 21:24 32.74200 104.30088 36457 ft 442 kts 351°
2026-04-28 21:25 32.80380 104.29792 36465 ft 441 kts 351°
2026-04-28 21:25 32.86507 104.29496 36470 ft 442 kts 350°
2026-04-28 21:26 32.92661 104.29199 36481 ft 442 kts 351°
2026-04-28 21:26 32.98792 104.28902 36500 ft 442 kts 351°
2026-04-28 21:27 33.04940 104.28605 36466 ft 443 kts 351°
2026-04-28 21:27 33.11108 104.28307 36513 ft 442 kts 351°
2026-04-28 21:28 33.17274 104.28007 36513 ft 442 kts 351°
2026-04-28 21:28 33.22964 104.27729 36491 ft 443 kts 351°
2026-04-28 21:29 33.28624 104.27451 36497 ft 442 kts 351°
2026-04-28 21:29 33.34659 104.26608 36465 ft 432 kts 340°
2026-04-28 21:30 33.40196 104.24038 36474 ft 421 kts 326°
2026-04-28 21:30 33.45286 104.20585 36464 ft 420 kts 325°
2026-04-28 21:31 33.50379 104.17114 36436 ft 421 kts 325°
2026-04-28 21:31 33.55516 104.13754 36460 ft 425 kts 330°
2026-04-28 21:32 33.61210 104.11620 36444 ft 436 kts 344°
2026-04-28 21:32 33.67335 104.11189 36432 ft 444 kts 354°
2026-04-28 21:33 33.73506 104.11200 36432 ft 444 kts 354°
2026-04-28 21:33 33.79676 104.11205 36440 ft 444 kts 354°
2026-04-28 21:34 33.85873 104.11209 36417 ft 445 kts 354°
2026-04-28 21:34 33.92061 104.11212 36434 ft 445 kts 354°
2026-04-28 21:35 33.98226 104.11214 36434 ft 446 kts 354°
2026-04-28 21:35 34.04440 104.11216 36422 ft 445 kts 354°
2026-04-28 21:36 34.10631 104.11217 36405 ft 445 kts 354°
2026-04-28 21:36 34.16832 104.11218 36388 ft 445 kts 354°
2026-04-28 21:37 34.22533 104.11220 36394 ft 445 kts 354°
2026-04-28 21:37 34.28184 104.11217 36383 ft 445 kts 354°
2026-04-28 21:38 34.34392 104.11217 36387 ft 445 kts 354°
2026-04-28 21:38 34.40578 104.11218 36394 ft 444 kts 354°
2026-04-28 21:39 34.46762 104.11219 36383 ft 444 kts 354°
2026-04-28 21:39 34.52928 104.11219 36378 ft 444 kts 354°
2026-04-28 21:40 34.59123 104.11219 36375 ft 444 kts 354°
2026-04-28 21:40 34.65285 104.11219 36375 ft 444 kts 354°
2026-04-28 21:41 34.71490 104.11219 36363 ft 444 kts 354°
2026-04-28 21:41 34.77633 104.11219 36362 ft 443 kts 354°
2026-04-28 21:42 34.83835 104.11218 36373 ft 443 kts 354°
2026-04-28 21:42 34.89984 104.11218 36381 ft 443 kts 354°
2026-04-28 21:43 34.96169 104.11217 36389 ft 443 kts 354°
2026-04-28 21:43 35.02332 104.11217 36391 ft 443 kts 354°
2026-04-28 21:44 35.08488 104.11217 36383 ft 442 kts 354°
2026-04-28 21:44 35.14674 104.11217 36392 ft 442 kts 354°
2026-04-28 21:45 35.20518 104.11217 36388 ft 442 kts 354°
2026-04-28 21:45 35.26633 104.11217 36372 ft 442 kts 354°
2026-04-28 21:46 35.32762 104.11217 36375 ft 441 kts 354°
2026-04-28 21:46 35.38925 104.11217 36376 ft 441 kts 354°
2026-04-28 21:47 35.45064 104.11216 36381 ft 440 kts 354°
2026-04-28 21:47 35.51188 104.11219 36356 ft 441 kts 355°
2026-04-28 21:48 35.57291 104.11245 36365 ft 440 kts 355°
2026-04-28 21:48 35.63453 104.11271 36363 ft 441 kts 355°
2026-04-28 21:49 35.69574 104.11297 36345 ft 441 kts 355°
2026-04-28 21:49 35.75705 104.11323 36357 ft 440 kts 355°
2026-04-28 21:50 35.81798 104.11346 36346 ft 439 kts 355°
2026-04-28 21:50 35.87868 104.10858 36339 ft 436 kts 350°
2026-04-28 21:51 35.93910 104.10187 36328 ft 435 kts 350°
2026-04-28 21:51 35.99931 104.09520 36319 ft 435 kts 350°
2026-04-28 21:52 36.05953 104.08855 36322 ft 435 kts 350°
2026-04-28 21:52 36.12006 104.08186 36323 ft 435 kts 350°
2026-04-28 21:53 36.18039 104.07521 36322 ft 435 kts 350°
2026-04-28 21:53 36.23642 104.06903 36327 ft 434 kts 350°
2026-04-28 21:54 36.29646 104.06245 36323 ft 434 kts 350°
2026-04-28 21:54 36.35701 104.05580 36320 ft 434 kts 350°
2026-04-28 21:55 36.41694 104.04919 36321 ft 434 kts 350°
2026-04-28 21:55 36.47722 104.04253 36319 ft 434 kts 351°
2026-04-28 21:56 36.53650 104.03036 36314 ft 428 kts 340°
2026-04-28 21:56 36.59043 104.00124 36319 ft 422 kts 326°
2026-04-28 21:57 36.63670 103.95629 36320 ft 419 kts 313°
2026-04-28 21:57 36.67186 103.89920 36318 ft 418 kts 300°
2026-04-28 21:58 36.69968 103.83567 36323 ft 419 kts 298°
2026-04-28 21:58 36.72731 103.77195 36325 ft 419 kts 298°
2026-04-28 21:59 36.75498 103.70802 36336 ft 419 kts 298°
2026-04-28 22:00 36.79625 103.61239 36351 ft 419 kts 298°
2026-04-28 22:00 36.82371 103.54861 36356 ft 419 kts 298°
2026-04-28 22:01 36.85130 103.48439 36359 ft 418 kts 298°
2026-04-28 22:01 36.87867 103.42056 36369 ft 419 kts 298°
2026-04-28 22:02 36.90591 103.35689 36369 ft 419 kts 298°
2026-04-28 22:02 36.93331 103.29275 36369 ft 418 kts 298°
2026-04-28 22:03 36.96156 103.23474 36371 ft 418 kts 302°
2026-04-28 22:03 36.99184 103.17487 36378 ft 418 kts 302°
2026-04-28 22:04 37.02283 103.11343 36368 ft 419 kts 302°
2026-04-28 22:04 37.05365 103.05217 36374 ft 419 kts 302°
2026-04-28 22:05 37.08463 102.99046 36355 ft 420 kts 302°
2026-04-28 22:05 37.11556 102.92871 36360 ft 420 kts 302°
2026-04-28 22:06 37.14564 102.86855 36372 ft 420 kts 302°
2026-04-28 22:06 37.17546 102.80878 36387 ft 419 kts 302°
2026-04-28 22:07 37.20559 102.74826 36394 ft 419 kts 302°
2026-04-28 22:07 37.23645 102.68618 36401 ft 419 kts 302°
2026-04-28 22:08 37.26719 102.62421 36392 ft 419 kts 302°
2026-04-28 22:08 37.29795 102.56208 36397 ft 419 kts 302°
2026-04-28 22:09 37.32851 102.50023 36392 ft 420 kts 302°
2026-04-28 22:09 37.35688 102.43628 36411 ft 421 kts 293°
2026-04-28 22:10 37.37302 102.36557 36428 ft 422 kts 286°
2026-04-28 22:10 37.38713 102.29374 36438 ft 423 kts 285°
2026-04-28 22:11 37.39968 102.22970 36460 ft 423 kts 285°
2026-04-28 22:11 37.41366 102.15814 36437 ft 423 kts 285°
2026-04-28 22:12 37.42757 102.08663 36439 ft 422 kts 285°
2026-04-28 22:12 37.44147 102.01492 36451 ft 423 kts 285°
2026-04-28 22:13 37.45525 101.94362 36493 ft 422 kts 285°
2026-04-28 22:13 37.46905 101.87192 36512 ft 423 kts 285°
2026-04-28 22:14 37.48285 101.79999 36535 ft 424 kts 285°
2026-04-28 22:14 37.49662 101.72794 36524 ft 424 kts 285°
2026-04-28 22:15 37.51575 101.65816 36482 ft 422 kts 297°
2026-04-28 22:15 37.54236 101.59258 36453 ft 422 kts 298°
2026-04-28 22:16 37.56889 101.52698 36436 ft 421 kts 298°
2026-04-28 22:16 37.59538 101.46132 36430 ft 422 kts 298°
2026-04-28 22:17 37.62180 101.39571 36444 ft 422 kts 298°
2026-04-28 22:17 37.64832 101.32970 36448 ft 423 kts 297°
2026-04-28 22:18 37.67607 101.26561 36451 ft 423 kts 300°
2026-04-28 22:18 37.70349 101.20374 36464 ft 423 kts 300°
2026-04-28 22:19 37.73194 101.13940 36474 ft 423 kts 300°
2026-04-28 22:19 37.76062 101.07438 36477 ft 423 kts 300°
2026-04-28 22:20 37.78920 101.00944 36491 ft 423 kts 300°
2026-04-28 22:20 37.81771 100.94453 36496 ft 424 kts 300°
2026-04-28 22:21 37.84619 100.87920 36503 ft 424 kts 300°
2026-04-28 22:21 37.87432 100.81419 36498 ft 424 kts 300°
2026-04-28 22:22 37.90251 100.74891 36495 ft 424 kts 300°
2026-04-28 22:22 37.93080 100.68327 36497 ft 424 kts 300°
2026-04-28 22:23 37.95886 100.61802 36494 ft 423 kts 300°
2026-04-28 22:23 37.98690 100.55270 36499 ft 424 kts 300°
2026-04-28 22:24 38.01490 100.48734 36501 ft 424 kts 300°
2026-04-28 22:24 38.04306 100.42145 36477 ft 425 kts 300°
2026-04-28 22:25 38.07111 100.35570 36498 ft 424 kts 300°
2026-04-28 22:25 38.09938 100.28930 36477 ft 425 kts 300°
2026-04-28 22:26 38.12466 100.22979 36500 ft 424 kts 300°
2026-04-28 22:26 38.15121 100.16716 36489 ft 425 kts 300°
2026-04-28 22:27 38.17922 100.10095 36502 ft 424 kts 300°
2026-04-28 22:27 38.20492 100.04011 36489 ft 424 kts 300°
2026-04-28 22:28 38.23305 99.97475 36476 ft 425 kts 301°
2026-04-28 22:28 38.26189 99.90920 36464 ft 425 kts 301°
2026-04-28 22:29 38.29069 99.84357 36471 ft 425 kts 301°
2026-04-28 22:29 38.31941 99.77800 36484 ft 425 kts 301°
2026-04-28 22:30 38.34811 99.71230 36465 ft 425 kts 301°
2026-04-28 22:30 38.37670 99.64673 36484 ft 426 kts 301°
2026-04-28 22:31 38.40545 99.58065 36477 ft 426 kts 301°
2026-04-28 22:31 38.43408 99.51469 36501 ft 425 kts 301°
2026-04-28 22:32 38.46264 99.44877 36501 ft 426 kts 301°
2026-04-28 22:32 38.49120 99.38271 36512 ft 426 kts 301°
2026-04-28 22:33 38.51970 99.31664 36473 ft 426 kts 301°
2026-04-28 22:33 38.54749 99.25208 36479 ft 426 kts 301°
2026-04-28 22:34 38.57566 99.18649 36492 ft 426 kts 301°
2026-04-28 22:34 38.60415 99.12006 36864 ft 427 kts 301°
2026-04-28 22:34 38.61843 99.08669 36628 ft 429 kts 301°
2026-04-28 22:35 38.63253 99.05371 36567 ft 426 kts 301°
2026-04-28 22:35 38.66093 98.98719 36533 ft 424 kts 301°
2026-04-28 22:36 38.68900 98.92130 36525 ft 425 kts 301°
2026-04-28 22:36 38.71731 98.85472 36503 ft 426 kts 301°
2026-04-28 22:37 38.74545 98.78839 36502 ft 425 kts 301°
2026-04-28 22:37 38.77366 98.72176 36502 ft 425 kts 301°
2026-04-28 22:38 38.80166 98.65550 36510 ft 425 kts 301°
2026-04-28 22:38 38.82969 98.58901 36533 ft 425 kts 301°
2026-04-28 22:39 38.85767 98.52250 36536 ft 425 kts 301°
2026-04-28 22:39 38.88579 98.45552 36527 ft 426 kts 301°
2026-04-28 22:40 38.91365 98.38899 36519 ft 426 kts 301°
2026-04-28 22:40 38.94173 98.32182 36494 ft 426 kts 300°
2026-04-28 22:41 38.96899 98.25646 36470 ft 426 kts 300°
2026-04-28 22:41 38.99565 98.19242 36478 ft 426 kts 300°
2026-04-28 22:42 39.02347 98.12545 36479 ft 427 kts 300°
2026-04-28 22:42 39.05128 98.05837 36489 ft 427 kts 300°
2026-04-28 22:43 39.07923 97.99079 36505 ft 427 kts 300°
2026-04-28 22:43 39.10698 97.92357 36496 ft 427 kts 300°
2026-04-28 22:44 39.13405 97.85783 36481 ft 427 kts 300°
2026-04-28 22:44 39.15885 97.79749 36441 ft 428 kts 300°
2026-04-28 22:45 39.18295 97.73869 36439 ft 427 kts 300°
2026-04-28 22:45 39.21027 97.67194 36440 ft 426 kts 300°
2026-04-28 22:46 39.23782 97.60438 36443 ft 426 kts 300°
2026-04-28 22:46 39.26522 97.53659 36448 ft 426 kts 299°
2026-04-28 22:47 39.29253 97.46887 36457 ft 426 kts 299°
2026-04-28 22:47 39.31980 97.40109 36451 ft 426 kts 300°
2026-04-28 22:48 39.34695 97.33346 36481 ft 425 kts 299°
2026-04-28 22:48 39.37376 97.26656 36457 ft 426 kts 299°
2026-04-28 22:49 39.40088 97.19872 36462 ft 426 kts 298°
2026-04-28 22:49 39.42807 97.13055 36449 ft 426 kts 299°
2026-04-28 22:50 39.45500 97.06287 36450 ft 426 kts 299°
2026-04-28 22:50 39.48190 96.99549 36001 ft 414 kts 299°
2026-04-28 22:50 39.49508 96.96265 35466 ft 407 kts 300°
2026-04-28 22:51 39.50801 96.93038 34974 ft 400 kts 300°
2026-04-28 22:51 39.52061 96.89890 34432 ft 395 kts 300°
2026-04-28 22:51 39.53311 96.86768 33935 ft 390 kts 300°
2026-04-28 22:51 39.54556 96.83652 33371 ft 386 kts 300°
2026-04-28 22:52 39.55771 96.80609 32901 ft 381 kts 299°
2026-04-28 22:52 39.56976 96.77589 32389 ft 377 kts 300°
2026-04-28 22:52 39.58166 96.74603 31900 ft 373 kts 299°
2026-04-28 22:52 39.59353 96.71622 31396 ft 369 kts 299°
2026-04-28 22:53 39.60518 96.68700 30921 ft 366 kts 299°
2026-04-28 22:53 39.61679 96.65782 30435 ft 366 kts 299°
2026-04-28 22:53 39.62834 96.62872 29944 ft 364 kts 298°
2026-04-28 22:53 39.63996 96.59978 29443 ft 361 kts 299°
2026-04-28 22:54 39.65155 96.57107 28954 ft 358 kts 299°
2026-04-28 22:54 39.66315 96.54234 28468 ft 357 kts 299°
2026-04-28 22:54 39.67451 96.51415 27979 ft 354 kts 299°
2026-04-28 22:54 39.68576 96.48620 27524 ft 352 kts 299°
2026-04-28 22:55 39.69701 96.45823 27062 ft 351 kts 299°
2026-04-28 22:55 39.70838 96.42995 26572 ft 349 kts 299°
2026-04-28 22:55 39.71949 96.40229 26095 ft 347 kts 299°
2026-04-28 22:55 39.73051 96.37480 25647 ft 345 kts 299°
2026-04-28 22:56 39.74152 96.34735 25168 ft 344 kts 299°
2026-04-28 22:56 39.75249 96.31995 24706 ft 342 kts 299°
2026-04-28 22:56 39.76239 96.29520 24315 ft 339 kts 299°
2026-04-28 22:56 39.77319 96.26819 23847 ft 339 kts 299°
2026-04-28 22:57 39.78408 96.24093 23389 ft 336 kts 299°
2026-04-28 22:57 39.79476 96.21414 22928 ft 335 kts 299°
2026-04-28 22:57 39.80537 96.18753 22468 ft 333 kts 299°
2026-04-28 22:57 39.81593 96.16103 22051 ft 330 kts 298°
2026-04-28 22:58 39.82644 96.13462 21597 ft 330 kts 299°
2026-04-28 22:58 39.83698 96.10811 21148 ft 327 kts 299°
2026-04-28 22:58 39.84735 96.08201 20727 ft 325 kts 298°
2026-04-28 22:58 39.85760 96.05617 20291 ft 323 kts 298°
2026-04-28 22:59 39.86782 96.03043 19842 ft 323 kts 298°
2026-04-28 22:59 39.87812 96.00442 19416 ft 319 kts 298°
2026-04-28 22:59 39.88824 95.97886 19004 ft 319 kts 298°
2026-04-28 22:59 39.89833 95.95337 18583 ft 316 kts 298°
2026-04-28 23:00 39.90832 95.92808 18173 ft 315 kts 299°
2026-04-28 23:00 39.91830 95.90281 17745 ft 314 kts 299°
2026-04-28 23:00 39.92822 95.87767 17326 ft 312 kts 298°
2026-04-28 23:00 39.93802 95.85284 16903 ft 311 kts 298°
2026-04-28 23:01 39.94795 95.82761 16508 ft 310 kts 298°
2026-04-28 23:01 39.95766 95.80295 16069 ft 310 kts 298°
2026-04-28 23:01 39.96734 95.77805 15643 ft 308 kts 297°
2026-04-28 23:01 39.97662 95.75307 15287 ft 306 kts 296°
2026-04-28 23:02 39.98585 95.72812 15015 ft 305 kts 296°
2026-04-28 23:02 39.99501 95.70335 14776 ft 306 kts 296°
2026-04-28 23:02 40.00422 95.67844 14463 ft 305 kts 296°
2026-04-28 23:02 40.01342 95.65353 14150 ft 304 kts 296°
2026-04-28 23:03 40.02255 95.62879 13843 ft 303 kts 296°
2026-04-28 23:03 40.03170 95.60399 13537 ft 303 kts 296°
2026-04-28 23:03 40.04076 95.57941 13235 ft 302 kts 295°
2026-04-28 23:03 40.04981 95.55481 12938 ft 302 kts 295°
2026-04-28 23:04 40.05880 95.53038 12633 ft 299 kts 295°
2026-04-28 23:04 40.07681 95.48145 12025 ft 297 kts 296°
2026-04-28 23:04 40.08807 95.45923 11738 ft 297 kts 309°
2026-04-28 23:05 40.10131 95.43857 11424 ft 296 kts 309°
2026-04-28 23:05 40.11448 95.41795 11132 ft 294 kts 309°
2026-04-28 23:05 40.12763 95.39729 10841 ft 293 kts 309°
2026-04-28 23:05 40.13868 95.37993 10588 ft 292 kts 309°
2026-04-28 23:06 40.15154 95.35968 10298 ft 291 kts 309°
2026-04-28 23:06 40.16431 95.33958 10011 ft 289 kts 308°
2026-04-28 23:06 40.17488 95.32291 9830 ft 286 kts 308°
2026-04-28 23:06 40.18728 95.30278 9544 ft 284 kts 303°
2026-04-28 23:07 40.19461 95.28233 9283 ft 275 kts 284°
2026-04-28 23:07 40.19617 95.25794 8962 ft 266 kts 265°
2026-04-28 23:07 40.19447 95.23484 8717 ft 246 kts 263°
2026-04-28 23:07 40.19287 95.21349 8496 ft 223 kts 264°
2026-04-28 23:08 40.19144 95.19421 8294 ft 205 kts 263°
2026-04-28 23:08 40.19010 95.17624 8104 ft 198 kts 263°
2026-04-28 23:08 40.18875 95.15868 8083 ft 186 kts 262°
2026-04-28 23:08 40.18736 95.14159 8155 ft 189 kts 263°
2026-04-28 23:09 40.18601 95.12455 8040 ft 184 kts 263°
2026-04-28 23:09 40.18474 95.10849 7835 ft 176 kts 263°
2026-04-28 23:09 40.18348 95.09262 7623 ft 175 kts 263°
2026-04-28 23:09 40.18227 95.07723 7425 ft 159 kts 263°
2026-04-28 23:10 40.18122 95.06386 7246 ft 144 kts 263°
2026-04-28 23:10 40.18020 95.05111 7042 ft 139 kts 263°
2026-04-28 23:10 40.17924 95.03862 6862 ft 134 kts 264°
2026-04-28 23:10 40.17835 95.02679 6684 ft 129 kts 264°
2026-04-28 23:11 40.17745 95.01482 6481 ft 133 kts 264°
2026-04-28 23:11 40.17655 95.00282 6321 ft 134 kts 264°
2026-04-28 23:11 40.17563 94.99063 6132 ft 134 kts 264°
2026-04-28 23:11 40.17473 94.97866 5961 ft 133 kts 263°
2026-04-28 23:12 40.17382 94.96660 5782 ft 133 kts 263°
2026-04-28 23:12 40.17292 94.95466 5607 ft 133 kts 263°
2026-04-28 23:12 40.17200 94.94261 5426 ft 133 kts 263°
2026-04-28 23:12 40.17108 94.93053 5253 ft 133 kts 263°
2026-04-28 23:13 40.17018 94.91859 5072 ft 133 kts 264°
2026-04-28 23:13 40.16926 94.90649 4897 ft 133 kts 264°
2026-04-28 23:13 40.16833 94.89436 4710 ft 133 kts 263°
2026-04-28 23:13 40.16743 94.88231 4516 ft 133 kts 264°
2026-04-28 23:14 40.16655 94.87034 4332 ft 133 kts 263°
2026-04-28 23:14 40.16561 94.85824 4141 ft 133 kts 263°
2026-04-28 23:14 40.16468 94.84626 3965 ft 133 kts 263°
2026-04-28 23:14 40.16371 94.83428 3787 ft 133 kts 262°
2026-04-28 23:15 40.16279 94.82275 3710 ft 116 kts 262°
2026-04-28 23:15 40.16213 94.81461 3714 ft 61 kts 263°
2026-04-28 23:15 40.16176 94.80993 3714 ft 41 kts 264°
2026-04-28 23:15 40.16153 94.80714 3715 ft 13 kts 270°
2026-04-28 23:16 40.16221 94.80685 3714 ft 12 kts 354°
2026-04-28 23:16 40.16327 94.80669 3710 ft 16 kts 355°
2026-04-28 23:16 40.16406 94.80700 3707 ft 13 kts 78°
2026-04-28 23:16 40.16416 94.80837 3707 ft 16 kts 82°
2026-04-28 23:17 40.16458 94.80856 3706 ft 0 kts 354°